FW4376 Weather Reports


time (UTC)temp
F
wind
direction
speed
knots
gust
knots
rain 1hr
in
rain 24hr
in
rain mn
in
humidity
%
barometer
mb
20260906003054 90 100 1.7 7.8 0.00 0.00 0.00 62 1010.8
20260906001552 91 146 3.5 8.7 0.00 0.00 0.00 60 1010.7
20260906000104 93 167 1.7 10.4 0.00 0.00 0.00 56 1010.4
20260905234556 95 127 1.7 5.2 0.00 0.00 0.00 54 1010.2
20260905233051 98 100 0.9 3.5 0.00 0.00 0.00 47 1010.0
20260905231549 99 113 0.0 3.5 0.00 0.00 0.00 45 1009.9
20260905230049 101 116 0.0 5.2 0.00 0.00 0.00 45 1010.0
20260905224602 101 170 0.9 3.5 0.00 0.00 0.00 42 1010.0
20260905223047 102 220 0.9 3.5 0.00 0.00 0.00 42 1009.8
20260905221546 101 219 0.0 0.9 0.00 0.00 0.00 45 1009.8
20260905220045 101 324 0.0 1.7 0.00 0.00 0.00 44 1010.0
20260905214546 101 217 0.0 2.6 0.00 0.00 0.00 43 1010.1
20260905213044 101 309 0.9 2.6 0.00 0.00 0.00 46 1010.2
20260905211542 102 127 0.0 2.6 0.00 0.00 0.00 43 1010.4
20260905210038 101 208 0.0 3.5 0.00 0.00 0.00 47 1010.6
20260905204534 100 212 0.9 3.5 0.00 0.00 0.00 46 1010.7
20260905203030 99 202 0.0 1.7 0.00 0.00 0.00 47 1011.0
20260905201528 99 131 0.0 2.6 0.00 0.00 0.00 49 1011.1
20260905200034 98 86 0.9 3.5 0.00 0.00 0.00 50 1011.3
20260905194525 99 297 0.0 1.7 0.00 0.00 0.00 49 1011.6
20260905193023 97 113 0.9 2.6 0.00 0.00 0.00 50 1011.8
20260905191519 97 224 0.0 2.6 0.00 0.00 0.00 50 1012.2
20260905190039 98 289 0.0 2.6 0.00 0.00 0.00 51 1012.4
20260905184518 98 159 0.9 4.3 0.00 0.00 0.00 51 1012.7
20260905183017 98 134 0.9 2.6 0.00 0.00 0.00 51 1012.9
20260905181516 97 104 0.0 1.7 0.00 0.00 0.00 53 1013.1
20260905180017 97 137 0.9 4.3 0.00 0.00 0.00 53 1013.4
20260905174508 95 120 0.0 2.6 0.00 0.00 0.00 57 1013.5
20260905173006 95 240 0.0 4.3 0.00 0.00 0.00 55 1013.8
20260905171505 95 109 0.9 5.2 0.00 0.00 0.00 56 1014.1
20260905170004 95 158 0.0 4.3 0.00 0.00 0.00 56 1014.1
20260905164502 94 97 0.0 1.7 0.00 0.00 0.00 59 1014.3
20260905163059 93 308 0.9 4.3 0.00 0.00 0.00 58 1014.4
20260905161557 92 118 0.9 4.3 0.00 0.00 0.00 60 1014.3
20260905154553 91 354 0.9 4.3 0.00 0.00 0.00 62 1014.4
20260905153059 90 232 0.9 3.5 0.00 0.00 0.00 65 1014.3
20260905151548 90 191 0.9 3.5 0.00 0.00 0.00 66 1014.3
20260905150046 89 247 1.7 4.3 0.00 0.00 0.00 66 1014.3
20260905144547 89 259 1.7 4.3 0.00 0.00 0.00 68 1014.1
20260905143041 87 231 0.9 3.5 0.00 0.00 0.00 69 1014.1
20260905141537 86 246 1.7 2.6 0.00 0.00 0.00 71 1014.1
20260905140033 84 183 0.0 2.6 0.00 0.00 0.00 75 1014.2
20260905134530 82 241 0.0 3.5 0.00 0.00 0.00 78 1014.1
20260905133032 80 269 0.0 0.9 0.00 0.00 0.00 79 1014.0
20260905131533 79 264 0.0 1.7 0.00 0.00 0.00 81 1013.7
20260905130035 78 193 0.0 1.7 0.00 0.00 0.00 81 1013.5
20260905124523 78 117 0.0 0.9 0.00 0.00 0.00 82 1013.3
20260905123020 77 118 0.0 0.0 0.00 0.00 0.00 82 1013.4
20260905121521 77 146 0.0 0.0 0.00 0.00 0.00 82 1013.3
20260905120019 78 166 0.0 0.9 0.00 0.00 0.00 82 1013.2
20260905114519 78 228 0.0 0.9 0.00 0.00 0.00 82 1013.2
20260905113018 78 245 0.0 0.9 0.00 0.00 0.00 81 1013.2
20260905111525 78 245 0.0 0.9 0.00 0.00 0.00 81 1013.1
20260905110017 78 245 0.0 0.9 0.00 0.00 0.00 81 1013.0
20260905104516 78 245 0.0 0.0 0.00 0.00 0.00 81 1013.0
20260905103016 79 245 0.0 0.9 0.00 0.00 0.00 80 1012.9
20260905101513 79 245 0.0 1.7 0.00 0.00 0.00 80 1013.0
20260905100018 79 243 0.0 0.9 0.00 0.00 0.00 79 1013.0
20260905094514 79 245 0.0 0.9 0.00 0.00 0.00 79 1012.9
20260905093010 79 239 0.0 1.7 0.00 0.00 0.00 78 1012.7
20260905091510 79 211 0.0 0.0 0.00 0.00 0.00 78 1012.6
20260905090008 80 216 0.0 0.0 0.00 0.00 0.00 78 1012.6
20260905084506 80 236 0.0 0.0 0.00 0.00 0.00 77 1012.5
20260905083004 81 231 0.0 0.9 0.00 0.00 0.00 77 1012.4
20260905081503 81 200 0.0 0.9 0.00 0.00 0.00 76 1012.4
20260905080003 81 256 0.0 1.7 0.00 0.00 0.00 76 1012.4
20260905074605 81 233 0.0 0.9 0.00 0.00 0.00 76 1012.5
20260905074503 81 238 0.0 0.9 0.00 0.00 0.00 76 1012.5
20260905073105 81 225 0.0 1.7 0.00 0.00 0.00 75 1012.6
20260905071558 82 245 0.0 0.9 0.00 0.00 0.00 74 1012.8
20260905070055 82 243 0.0 0.9 0.00 0.00 0.00 74 1013.0
20260905064554 82 240 0.0 0.9 0.00 0.00 0.00 73 1013.2
20260905063054 83 245 0.0 0.9 0.00 0.00 0.00 72 1013.3
20260905061551 83 238 0.0 1.7 0.00 0.00 0.00 71 1013.3
20260905060050 83 286 0.0 1.7 0.00 0.00 0.00 71 1013.0
20260905054549 84 236 0.0 2.6 0.00 0.00 0.00 71 1012.8
20260905053110 84 39 0.0 3.5 0.00 0.00 0.00 70 1012.7
20260905051543 84 245 0.0 0.9 0.00 0.00 0.00 70 1012.5
20260905050041 84 194 0.0 2.6 0.00 0.00 0.00 70 1012.7
20260905044541 84 215 0.0 1.7 0.00 0.00 0.00 69 1012.8
20260905043040 85 131 0.0 1.7 0.00 0.00 0.00 68 1012.6
20260905041544 85 130 0.0 1.7 0.00 0.00 0.00 68 1012.6
20260905040039 86 109 0.0 2.6 0.00 0.00 0.00 67 1012.7
20260905034539 86 108 0.0 1.7 0.00 0.00 0.00 66 1012.9
20260905033049 87 192 0.9 2.6 0.00 0.00 0.00 65 1012.9
20260905031543 88 140 0.9 2.6 0.00 0.00 0.00 64 1012.8
20260905030040 88 240 0.0 1.7 0.00 0.00 0.00 64 1012.7
20260905024537 88 139 0.0 2.6 0.00 0.00 0.00 63 1012.6
20260905023040 88 104 0.0 1.7 0.00 0.00 0.00 63 1012.3
20260905021538 89 113 0.0 2.6 0.00 0.00 0.00 62 1012.1
20260905020036 89 104 0.0 2.6 0.00 0.00 0.00 61 1012.0
20260905014536 90 111 0.0 1.7 0.00 0.00 0.00 61 1011.7
20260905013034 90 113 0.0 1.7 0.00 0.00 0.00 60 1011.5
20260905011535 91 185 0.0 1.7 0.00 0.00 0.00 59 1011.4
20260905010033 92 123 0.9 2.6 0.00 0.00 0.00 57 1011.1
20260905004535 92 120 0.0 4.3 0.00 0.00 0.00 56 1011.0